Temp
-6 -6 -6 -6 -6 -6 -7 -7 -7 -7 -7 -7 -8 -8 -8 -8 -8 -7 -7 -7 -7 -7 -7 -7 -7 -7 -7 -7 -7 -7 -7 -7 -7 -7 -7 -7 -7 -7 -7 -7 -7 -7 -7 -7 -7 -7 -6 -6 -6 -5 -5 -5 -4 -4 -4 -3 -3 -3 -3 -2 -2 -2 -2 -2 -2 -2 -2 -2 -1
-6 -6 -6 -6 -7 -7 -7 -7 -7 -7 -8 -8 -8 -8 -8 -8 -8 -8 -7 -7 -7 -7 -7 -7 -7 -7 -7 -7 -7 -7 -7 -7 -7 -7 -7 -7 -7 -7 -8 -8 -8 -8 -8 -7 -7 -7 -6 -6 -6 -6 -5 -5 -5 -4 -4 -3 -3 -3 -2 -2 -2 -2 -2 -2 -2 -2 -2 -2 -1
-6 -6 -6 -7 -7 -7 -7 -7 -7 -8 -8 -8 -8 -8 -8 -8 -8 -8 -8 -8 -8 -8 -8 -8 -8 -7 -7 -7 -7 -7 -8 -8 -7 -7 -7 -8 -8 -8 -8 -8 -8 -8 -8 -7 -7 -7 -6 -6 -6 -6 -5 -5 -5 -4 -4 -4 -3 -3 -2 -3 -3 -3 -3 -3 -2 -2 -2 -2 -1
-6 -7 -7 -7 -7 -7 -7 -8 -8 -8 -8 -8 -8 -8 -8 -8 -8 -8 -8 -8 -8 -8 -8 -8 -8 -8 -7 -8 -8 -8 -8 -8 -8 -8 -8 -8 -8 -8 -8 -8 -8 -8 -8 -7 -7 -7 -6 -6 -6 -6 -6 -5 -5 -5 -4 -4 -3 -3 -3 -3 -3 -3 -3 -3 -3 -2 -2 -1 -1
-7 -7 -7 -7 -7 -7 -8 -8 -8 -8 -8 -9 -9 -8 -8 -8 -8 -8 -8 -8 -8 -8 -8 -8 -8 -8 -8 -8 -8 -8 -8 -8 -8 -8 -8 -8 -8 -8 -8 -8 -8 -8 -7 -7 -7 -7 -6 -6 -6 -6 -6 -5 -5 -5 -4 -4 -3 -3 -4 -4 -4 -3 -3 -3 -2 -2 -2 -1 -1
-7 -7 -7 -7 -7 -8 -8 -8 -8 -9 -9 -9 -9 -9 -8 -8 -8 -8 -8 -8 -8 -8 -8 -8 -8 -8 -8 -8 -8 -8 -8 -8 -8 -8 -8 -8 -8 -8 -8 -8 -8 -7 -7 -7 -7 -7 -6 -6 -6 -6 -6 -5 -5 -5 -4 -4 -4 -4 -4 -4 -4 -4 -3 -3 -2 -2 -2 -2 -2
-7 -7 -7 -8 -8 -8 -8 -8 -9 -9 -9 -9 -9 -9 -9 -8 -8 -8 -8 -8 -8 -8 -8 -8 -8 -8 -8 -8 -8 -8 -8 -8 -8 -8 -8 -8 -8 -8 -8 -8 -8 -7 -7 -7 -7 -7 -6 -6 -6 -6 -6 -5 -5 -5 -4 -4 -4 -4 -4 -4 -4 -4 -3 -3 -2 -2 -2 -2 -2
-7 -7 -8 -8 -8 -8 -8 -9 -9 -9 -9 -9 -9 -9 -9 -9 -8 -8 -8 -8 -8 -8 -8 -8 -8 -8 -8 -8 -8 -8 -8 -8 -8 -8 -8 -8 -8 -8 -8 -8 -7 -7 -7 -7 -7 -7 -6 -6 -6 -6 -6 -5 -5 -5 -5 -5 -5 -4 -4 -4 -4 -4 -3 -3 -2 -2 -2 -2 -2
-7 -8 -8 -8 -8 -8 -9 -9 -9 -9 -9 -9 -9 -9 -9 -9 -9 -9 -9 -8 -8 -8 -8 -8 -8 -8 -8 -8 -8 -8 -8 -8 -8 -8 -8 -8 -8 -8 -8 -8 -7 -7 -7 -7 -7 -7 -6 -6 -6 -6 -6 -6 -5 -5 -5 -5 -5 -5 -5 -4 -4 -4 -3 -3 -2 -2 -2 -2 -2
-8 -8 -8 -8 -8 -9 -9 -9 -9 -9 -9 -9 -9 -9 -9 -9 -9 -9 -9 -9 -9 -9 -9 -9 -9 -8 -8 -8 -8 -8 -8 -8 -8 -8 -8 -8 -8 -8 -8 -8 -7 -7 -7 -7 -7 -7 -6 -6 -6 -6 -6 -6 -6 -5 -5 -5 -5 -5 -5 -5 -4 -4 -4 -3 -2 -2 -2 -2 -2
-8 -8 -8 -8 -9 -9 -9 -9 -9 -9 -9 -9 -9 -9 -9 -9 -9 -9 -9 -9 -9 -9 -9 -9 -9 -8 -8 -8 -8 -8 -8 -8 -8 -8 -8 -8 -8 -8 -8 -8 -7 -7 -7 -7 -7 -7 -7 -6 -6 -6 -6 -6 -6 -6 -5 -5 -5 -5 -5 -5 -5 -4 -4 -3 -2 -2 -2 -2 -2
-8 -8 -8 -9 -9 -9 -9 -9 -9 -9 -9 -9 -9 -9 -9 -9 -9 -9 -9 -9 -9 -9 -9 -9 -8 -8 -8 -8 -8 -8 -8 -8 -8 -8 -8 -8 -8 -8 -8 -8 -8 -7 -7 -7 -7 -7 -7 -6 -6 -6 -6 -6 -6 -6 -6 -5 -5 -5 -5 -5 -5 -4 -4 -3 -2 -2 -2 -2 -2
-8 -8 -9 -9 -9 -9 -9 -9 -10 -9 -9 -9 -9 -9 -9 -9 -9 -9 -9 -9 -9 -9 -9 -9 -9 -8 -8 -8 -8 -8 -8 -8 -8 -8 -8 -8 -8 -8 -8 -8 -8 -8 -7 -7 -7 -7 -7 -6 -6 -6 -6 -6 -6 -6 -6 -5 -5 -5 -5 -5 -5 -4 -4 -3 -2 -2 -2 -2 -2
-8 -9 -9 -9 -9 -9 -9 -10 -10 -9 -9 -9 -9 -9 -9 -9 -9 -8 -8 -8 -9 -9 -9 -9 -8 -8 -8 -8 -8 -8 -8 -8 -8 -8 -8 -8 -8 -8 -8 -8 -8 -8 -7 -7 -7 -7 -7 -6 -6 -6 -6 -6 -6 -6 -6 -5 -5 -5 -5 -5 -5 -4 -4 -3 -2 -2 -2 -2 -2
-9 -9 -9 -9 -9 -10 -10 -10 -10 -9 -9 -9 -9 -9 -9 -9 -8 -8 -8 -8 -8 -8 -9 -8 -8 -8 -8 -8 -8 -9 -9 -8 -8 -8 -8 -8 -8 -8 -8 -8 -8 -7 -7 -7 -7 -7 -7 -6 -6 -6 -6 -6 -6 -6 -5 -5 -5 -5 -5 -4 -4 -4 -3 -3 -2 -3 -3 -3 -2
-9 -9 -9 -9 -10 -10 -10 -10 -10 -9 -9 -9 -9 -9 -9 -9 -8 -8 -8 -8 -8 -8 -8 -8 -8 -8 -8 -8 -9 -9 -9 -8 -8 -8 -8 -8 -8 -8 -8 -8 -7 -7 -7 -7 -7 -7 -7 -6 -6 -6 -6 -6 -6 -6 -5 -5 -5 -5 -4 -4 -4 -4 -3 -3 -3 -3 -3 -3 -2
-9 -9 -9 -10 -10 -10 -10 -10 -10 -10 -9 -9 -9 -9 -9 -8 -8 -8 -8 -8 -8 -8 -8 -8 -8 -8 -8 -9 -9 -9 -9 -8 -8 -8 -8 -8 -8 -8 -8 -7 -7 -7 -7 -7 -7 -7 -7 -6 -6 -6 -6 -6 -6 -6 -5 -5 -5 -5 -4 -3 -3 -3 -3 -3 -3 -3 -3 -3 -2
-9 -9 -10 -10 -10 -10 -10 -10 -10 -10 -9 -9 -9 -9 -9 -9 -8 -8 -8 -8 -8 -8 -8 -8 -8 -8 -8 -9 -9 -9 -8 -8 -8 -8 -8 -8 -8 -8 -7 -7 -7 -7 -7 -7 -7 -7 -6 -6 -6 -6 -6 -6 -6 -6 -5 -5 -5 -4 -4 -3 -3 -3 -3 -3 -3 -3 -3 -3 -3
-9 -10 -10 -10 -10 -10 -10 -10 -10 -10 -10 -9 -9 -9 -9 -9 -8 -8 -8 -9 -9 -9 -9 -9 -9 -8 -8 -8 -8 -8 -8 -8 -8 -8 -8 -8 -8 -7 -7 -7 -7 -7 -7 -7 -7 -6 -6 -6 -6 -6 -6 -6 -6 -5 -5 -5 -4 -4 -3 -3 -2 -3 -3 -3 -3 -3 -3 -3 -3
-10 -10 -10 -10 -10 -10 -10 -10 -10 -10 -10 -9 -9 -9 -9 -9 -9 -9 -9 -9 -9 -9 -9 -9 -9 -9 -8 -8 -8 -8 -8 -8 -8 -8 -8 -8 -7 -7 -7 -7 -7 -7 -7 -7 -6 -6 -6 -6 -6 -6 -6 -5 -5 -5 -5 -5 -4 -3 -3 -2 -2 -3 -3 -3 -3 -2 -2 -3 -3
-10 -10 -10 -10 -10 -10 -10 -10 -10 -10 -10 -9 -9 -9 -9 -9 -9 -9 -9 -9 -9 -9 -9 -9 -9 -9 -8 -8 -8 -8 -8 -8 -8 -8 -8 -8 -7 -7 -7 -7 -7 -7 -7 -7 -6 -6 -6 -6 -6 -6 -5 -5 -4 -4 -4 -4 -3 -3 -2 -2 -2 -2 -3 -2 -2 -2 -2 -3 -3
-10 -10 -10 -10 -10 -10 -10 -10 -10 -10 -9 -9 -9 -9 -9 -9 -9 -9 -9 -9 -9 -9 -9 -9 -9 -9 -8 -8 -8 -8 -8 -8 -8 -8 -8 -8 -7 -7 -7 -7 -7 -7 -7 -7 -6 -6 -6 -6 -6 -5 -4 -3 -3 -3 -3 -3 -3 -2 -2 -2 -2 -2 -2 -2 -2 -2 -2 -3 -3
-10 -11 -11 -10 -10 -10 -10 -10 -10 -10 -9 -9 -9 -9 -9 -9 -9 -9 -9 -9 -9 -9 -9 -9 -9 -9 -8 -8 -8 -8 -8 -8 -8 -8 -8 -8 -7 -7 -7 -7 -7 -7 -7 -6 -6 -6 -6 -6 -5 -4 -3 -2 -2 -2 -2 -2 -2 -2 -2 -2 -2 -2 -2 -2 -2 -2 -3 -3 -3
-11 -11 -11 -10 -10 -10 -10 -10 -10 -9 -9 -9 -9 -9 -9 -9 -9 -9 -9 -9 -9 -9 -9 -9 -9 -9 -8 -8 -8 -8 -8 -8 -8 -8 -8 -7 -7 -7 -7 -7 -7 -7 -7 -6 -6 -6 -5 -5 -3 -3 -2 -2 -2 -2 -2 -2 -2 -2 -2 -2 -2 -2 -2 -2 -2 -3 -3 -3 -3
-11 -11 -10 -10 -10 -10 -10 -10 -9 -9 -9 -9 -9 -9 -9 -9 -9 -9 -9 -9 -9 -9 -9 -9 -9 -9 -9 -8 -8 -8 -8 -8 -8 -8 -8 -7 -7 -7 -7 -7 -7 -7 -7 -6 -6 -5 -5 -4 -3 -2 -2 -2 -2 -2 -2 -2 -2 -2 -2 -2 -2 -2 -2 -2 -3 -3 -3 -3 -3
-10 -10 -10 -10 -10 -10 -9 -9 -9 -9 -9 -9 -9 -9 -9 -9 -9 -9 -9 -9 -9 -9 -9 -9 -9 -9 -9 -9 -8 -8 -8 -8 -8 -8 -8 -8 -7 -7 -7 -7 -7 -7 -6 -6 -6 -5 -4 -3 -2 -2 -2 -2 -2 -2 -2 -2 -2 -3 -3 -2 -2 -2 -2 -3 -3 -3 -3 -3 -3
-10 -10 -10 -10 -9 -9 -9 -9 -9 -9 -9 -9 -9 -9 -9 -9 -9 -9 -9 -9 -9 -9 -9 -9 -9 -9 -9 -9 -9 -8 -8 -8 -8 -8 -8 -8 -7 -7 -7 -7 -7 -7 -6 -6 -5 -5 -4 -3 -2 -2 -2 -2 -2 -2 -2 -3 -3 -3 -3 -3 -2 -2 -3 -3 -3 -3 -3 -3 -3
-10 -10 -9 -9 -9 -9 -9 -9 -9 -9 -9 -9 -9 -9 -9 -9 -9 -9 -9 -9 -9 -9 -9 -9 -9 -9 -9 -9 -9 -8 -8 -8 -8 -8 -8 -8 -7 -7 -7 -7 -7 -6 -6 -6 -5 -4 -3 -2 -2 -2 -2 -2 -2 -3 -3 -3 -3 -3 -3 -3 -3 -3 -3 -3 -3 -3 -3 -3 -3
-9 -9 -9 -9 -9 -9 -9 -9 -9 -9 -9 -9 -9 -9 -9 -9 -9 -9 -9 -9 -9 -9 -9 -9 -9 -9 -9 -9 -9 -8 -8 -8 -8 -8 -8 -8 -7 -7 -7 -7 -7 -6 -6 -6 -5 -4 -3 -2 -2 -2 -2 -2 -3 -3 -3 -3 -3 -3 -3 -3 -3 -3 -3 -3 -3 -3 -3 -3 -3
-9 -9 -9 -9 -9 -9 -9 -9 -9 -9 -9 -9 -9 -9 -9 -9 -9 -9 -9 -9 -9 -9 -9 -9 -9 -9 -9 -9 -9 -8 -8 -8 -8 -8 -8 -8 -7 -7 -7 -7 -6 -6 -6 -5 -5 -4 -3 -2 -2 -2 -2 -3 -3 -3 -3 -3 -3 -3 -3 -3 -3 -3 -3 -3 -3 -3 -3 -3 -3
-9 -9 -9 -9 -9 -9 -9 -9 -9 -9 -9 -9 -9 -9 -9 -9 -9 -9 -9 -9 -9 -9 -9 -9 -9 -9 -9 -9 -9 -8 -8 -8 -8 -8 -8 -8 -7 -7 -7 -6 -6 -6 -6 -5 -5 -4 -3 -2 -3 -3 -3 -3 -3 -3 -3 -3 -3 -3 -3 -3 -3 -3 -3 -3 -3 -3 -3 -3 -4
-9 -9 -9 -9 -9 -9 -9 -9 -9 -9 -9 -9 -9 -9 -9 -9 -9 -9 -9 -9 -9 -9 -8 -8 -8 -8 -8 -8 -8 -8 -8 -8 -8 -8 -8 -7 -7 -7 -7 -6 -6 -6 -6 -5 -4 -4 -3 -3 -3 -3 -3 -3 -3 -3 -3 -3 -3 -3 -3 -3 -3 -3 -3 -3 -3 -3 -4 -4 -4
-9 -9 -9 -9 -9 -9 -9 -9 -9 -9 -9 -9 -9 -9 -9 -9 -9 -9 -9 -9 -8 -8 -8 -8 -8 -8 -8 -8 -8 -8 -8 -8 -8 -8 -8 -7 -7 -7 -6 -6 -6 -6 -5 -5 -4 -4 -3 -3 -3 -3 -3 -3 -3 -3 -3 -3 -3 -3 -3 -3 -3 -3 -4 -4 -4 -4 -4 -4 -4
-9 -9 -9 -9 -9 -9 -9 -9 -9 -9 -9 -9 -9 -9 -9 -9 -9 -9 -8 -8 -8 -8 -8 -8 -8 -8 -8 -8 -8 -8 -8 -8 -8 -8 -8 -7 -7 -7 -6 -6 -6 -6 -5 -5 -5 -4 -4 -4 -4 -4 -4 -4 -3 -3 -3 -3 -3 -3 -3 -3 -4 -4 -4 -4 -4 -4 -4 -4 -4
-9 -9 -9 -9 -9 -9 -9 -9 -9 -9 -9 -9 -9 -9 -9 -8 -8 -8 -8 -8 -8 -8 -8 -8 -8 -8 -8 -8 -8 -8 -8 -8 -8 -8 -7 -7 -7 -7 -6 -6 -6 -6 -5 -5 -5 -4 -4 -4 -4 -5 -5 -4 -4 -4 -4 -4 -4 -4 -4 -4 -5 -5 -5 -5 -4 -4 -4 -4 -4
-9 -9 -9 -9 -9 -9 -9 -9 -9 -9 -9 -9 -9 -8 -8 -8 -8 -8 -8 -8 -8 -8 -8 -8 -8 -8 -8 -8 -8 -8 -8 -8 -8 -7 -7 -7 -7 -6 -6 -6 -6 -6 -5 -5 -5 -4 -4 -4 -4 -5 -5 -5 -5 -4 -4 -4 -4 -4 -5 -5 -5 -5 -5 -5 -5 -5 -4 -4 -4
-9 -9 -9 -9 -9 -9 -9 -9 -9 -9 -9 -9 -8 -8 -8 -8 -8 -8 -8 -8 -8 -8 -8 -8 -8 -8 -8 -8 -8 -8 -7 -7 -7 -7 -7 -7 -7 -6 -6 -6 -6 -6 -5 -5 -5 -4 -4 -4 -4 -5 -5 -5 -5 -5 -4 -4 -5 -5 -5 -5 -5 -5 -5 -5 -5 -5 -5 -4 -4
-9 -9 -9 -9 -9 -9 -9 -9 -9 -9 -8 -8 -8 -8 -8 -8 -8 -8 -8 -8 -8 -8 -8 -8 -8 -8 -8 -8 -8 -7 -7 -7 -7 -7 -7 -7 -7 -6 -6 -6 -6 -6 -6 -5 -5 -4 -4 -4 -4 -5 -5 -5 -5 -5 -5 -5 -5 -5 -5 -5 -6 -6 -6 -6 -6 -6 -5 -5 -4
-9 -9 -9 -9 -9 -9 -9 -8 -8 -8 -8 -8 -8 -8 -8 -8 -8 -8 -8 -8 -8 -8 -7 -7 -7 -7 -8 -8 -7 -7 -7 -7 -7 -7 -7 -7 -6 -6 -6 -6 -6 -6 -6 -5 -5 -4 -4 -4 -4 -5 -5 -6 -6 -5 -5 -5 -5 -5 -5 -6 -6 -6 -6 -6 -6 -6 -6 -6 -5
-9 -9 -9 -9 -8 -8 -8 -8 -8 -8 -8 -8 -8 -8 -8 -8 -8 -8 -8 -8 -7 -7 -7 -7 -7 -7 -7 -7 -8 -8 -7 -7 -7 -7 -7 -7 -6 -6 -6 -6 -6 -6 -6 -6 -5 -5 -4 -4 -4 -5 -5 -6 -6 -6 -6 -6 -5 -5 -5 -6 -6 -6 -6 -6 -6 -6 -6 -6 -6
-9 -9 -9 -8 -8 -8 -8 -8 -8 -8 -8 -8 -8 -8 -8 -8 -8 -8 -8 -7 -7 -7 -7 -7 -7 -7 -7 -7 -8 -8 -7 -7 -7 -7 -7 -6 -6 -6 -6 -6 -6 -6 -6 -6 -5 -5 -4 -4 -4 -4 -5 -5 -6 -6 -6 -6 -6 -6 -6 -6 -6 -6 -6 -6 -6 -6 -6 -6 -6
Height
883 882 881 880 878 877 875 874 873 871 870 868 866 865 863 862 860 858 857 855 854 852 850 849 847 845 844 842 841 840 838 836 835 833 832 830 829 827 825 823 822 820 818 816 815 813 812 810 809 807 805 803 801 800 798 796 794 792 790 789 788 786 785 784 783 781 780 778 777
883 882 881 880 878 877 875 874 872 871 870 868 867 865 863 862 860 858 857 855 854 852 850 849 847 845 844 842 841 839 838 836 834 832 831 829 828 826 825 823 821 819 817 816 814 813 811 809 808 806 804 802 800 799 797 795 793 791 790 789 787 786 785 783 781 780 778 776 775
883 882 880 879 878 876 875 873 872 870 869 868 866 865 863 862 860 859 857 855 854 852 850 849 846 845 843 842 840 839 837 835 834 832 830 829 827 825 824 822 820 818 816 815 813 812 810 809 807 805 803 801 800 798 795 794 792 791 790 788 787 785 784 782 780 778 776 775 774
883 881 880 879 878 876 875 874 872 870 869 867 866 864 863 862 860 859 857 855 853 852 850 848 846 845 843 841 840 838 836 835 833 831 830 828 826 825 823 821 819 817 815 814 812 811 810 808 806 805 802 800 799 797 795 793 792 790 789 787 786 784 783 780 778 777 775 774 773
882 881 880 879 877 876 875 873 872 870 869 867 865 864 863 861 860 858 856 855 853 851 850 848 846 845 843 841 839 837 836 834 833 831 829 827 825 824 822 820 819 817 815 813 811 810 809 807 805 803 801 800 798 796 794 793 791 790 788 786 785 783 781 779 777 775 774 773 772
882 881 880 879 877 876 875 873 872 870 868 867 865 864 863 861 860 858 856 855 853 851 849 848 846 844 842 840 839 837 835 833 832 830 828 826 825 823 821 820 818 816 814 812 810 809 807 806 804 802 800 799 797 795 793 792 790 789 787 785 783 782 780 778 776 775 773 772 771
882 881 880 878 877 875 874 873 871 870 868 866 865 864 862 861 859 858 856 855 852 850 849 847 845 844 842 840 838 836 834 833 831 830 828 826 824 822 820 819 817 815 813 811 810 808 806 805 803 801 799 798 795 794 792 791 790 788 786 784 782 780 779 777 775 774 773 771 770
882 881 880 878 877 875 874 872 871 869 868 866 865 863 862 860 859 857 855 854 852 850 849 847 845 843 842 840 838 836 834 832 830 829 827 825 824 822 820 818 816 814 812 811 809 807 806 804 802 800 798 797 795 793 791 790 789 787 785 783 781 779 778 776 775 773 772 770 768
882 880 879 878 876 875 873 872 870 869 867 866 865 863 862 860 859 857 855 853 852 850 848 847 845 843 841 839 837 835 834 832 830 828 826 825 823 821 819 817 815 813 812 810 808 806 805 803 801 799 797 796 794 792 790 789 787 786 784 782 780 778 776 775 774 772 771 769 767
881 880 879 877 876 875 873 871 870 869 867 865 864 863 861 860 858 856 855 853 851 850 848 846 844 842 840 839 837 835 833 831 829 827 825 824 822 820 819 817 815 813 811 809 807 805 804 802 800 798 796 795 793 791 789 787 786 784 783 781 779 777 775 774 772 771 770 768 766
881 880 878 877 875 874 873 871 869 868 866 865 864 862 860 859 857 856 854 853 851 849 847 846 844 842 840 838 836 835 833 831 829 827 825 823 821 820 818 816 814 812 810 809 807 805 803 800 798 796 794 793 791 789 787 786 785 783 781 780 778 776 774 772 771 770 769 767 765
881 880 878 877 875 874 872 871 869 867 866 865 863 861 860 858 857 855 854 852 850 849 847 845 843 841 840 838 836 834 832 830 829 826 825 823 821 819 817 815 814 812 810 808 806 804 802 800 797 795 793 790 789 788 786 784 783 781 780 778 776 775 773 771 770 769 768 766 764
881 879 878 876 875 874 872 870 869 867 865 864 863 861 860 858 856 855 853 851 850 848 846 844 843 841 839 837 835 834 832 830 828 826 824 822 820 818 816 815 813 810 809 806 805 803 800 798 796 794 791 789 787 786 784 783 781 780 778 776 775 773 772 770 769 768 767 765 764
880 879 878 876 875 873 871 870 868 867 865 864 862 860 859 857 855 854 852 851 849 847 845 844 842 840 839 837 835 833 831 829 827 825 823 821 820 818 816 814 811 809 807 805 803 801 799 797 795 793 790 788 786 784 782 781 780 778 777 775 774 772 770 770 769 767 766 764 763
880 879 877 876 874 873 871 870 868 866 865 863 862 860 858 857 855 854 852 850 849 847 845 843 841 840 838 836 835 833 830 829 827 825 823 821 819 817 815 813 810 808 806 803 801 799 797 795 793 791 789 786 784 782 780 779 778 777 775 774 772 771 770 769 768 767 765 764 762
880 878 877 875 874 872 871 870 868 866 865 863 861 860 858 856 855 853 851 850 848 846 845 843 841 839 837 835 834 832 830 828 826 824 822 820 818 816 814 812 809 807 804 802 799 797 795 793 791 789 787 785 783 780 779 778 776 775 774 773 771 770 769 769 767 766 765 763 762
879 878 876 875 874 872 870 869 868 866 864 862 861 859 858 856 854 852 851 849 848 845 844 842 840 839 836 835 833 831 829 827 825 823 821 820 817 815 813 811 808 806 803 800 798 795 793 790 789 787 785 782 780 779 777 776 775 773 772 771 770 769 769 768 767 765 764 763 762
879 877 876 874 873 871 870 869 867 865 864 862 860 859 857 855 854 852 850 849 847 845 843 841 840 838 836 834 832 830 829 827 825 823 821 819 817 815 812 810 808 805 802 800 797 794 791 788 786 784 781 779 777 776 775 775 773 772 771 770 770 769 768 767 766 765 764 763 762
878 877 875 874 872 871 869 868 866 865 863 862 860 858 856 855 853 852 850 848 846 845 843 841 839 837 835 834 832 830 828 826 824 822 820 818 816 814 812 810 807 804 801 799 796 793 790 787 784 781 778 775 774 773 773 773 771 771 770 770 770 769 768 767 765 765 764 763 761
878 876 875 873 872 870 869 867 866 864 863 861 859 858 856 854 853 851 849 847 846 844 842 840 838 836 835 833 831 829 827 825 823 821 820 818 815 813 811 809 806 803 800 798 795 791 788 785 782 778 775 771 770 769 770 770 770 770 770 770 769 768 767 766 765 764 764 763 761
878 876 875 873 871 870 868 867 865 864 862 860 859 857 855 854 852 850 849 847 845 843 841 840 838 835 834 832 830 828 826 825 823 821 819 817 815 813 810 808 805 802 799 796 793 790 786 783 780 776 772 769 767 766 767 768 768 769 769 769 769 768 767 766 765 764 763 762 761
877 876 874 873 871 870 868 866 865 863 861 860 858 856 855 853 852 850 848 846 845 843 841 839 837 835 833 831 830 827 825 824 822 820 818 816 814 812 810 807 804 801 798 795 791 787 784 780 777 775 771 768 765 765 765 766 767 768 769 769 768 767 766 765 765 764 763 762 761
877 875 874 872 870 869 867 866 864 862 860 859 857 855 854 853 851 849 848 846 844 842 840 838 836 835 833 831 829 827 825 823 821 819 817 815 813 811 808 806 803 800 797 793 790 786 782 779 776 773 771 768 766 765 765 766 768 768 768 768 767 767 766 765 765 764 763 762 761
876 875 873 871 870 868 867 865 863 861 860 858 857 855 854 852 850 849 847 845 843 841 840 838 836 834 832 830 829 827 825 822 820 818 816 814 812 810 808 805 802 799 796 792 789 785 781 778 775 773 771 769 767 767 767 768 768 768 768 768 767 766 766 765 765 764 763 762 761
876 874 872 871 869 868 866 865 863 861 859 858 856 855 853 851 850 848 846 845 843 841 839 837 835 833 831 830 828 826 824 822 820 818 816 814 811 809 807 804 801 798 795 791 788 784 780 777 774 771 770 769 769 768 768 768 768 768 768 767 767 767 766 766 765 764 763 763 762
875 873 872 870 869 867 865 864 862 860 859 857 856 854 853 851 850 848 846 844 842 840 839 837 835 833 831 829 827 825 824 822 820 818 816 814 811 809 806 804 801 798 794 790 786 782 778 775 771 769 769 769 769 769 768 768 768 768 768 767 767 767 767 766 765 765 764 763 762
875 873 871 870 868 867 865 864 862 860 859 857 855 854 852 851 849 847 846 844 842 840 838 836 834 833 831 829 827 825 823 821 820 818 816 814 811 809 806 803 801 798 794 790 786 782 778 774 769 768 769 769 769 769 768 768 768 767 767 767 767 767 767 766 765 765 764 764 763
874 873 871 870 868 866 865 863 862 860 859 857 855 854 852 850 849 847 845 844 842 840 838 836 834 833 831 829 827 825 823 821 820 818 816 814 811 809 806 804 800 797 794 790 786 782 778 773 769 768 769 769 769 769 768 768 768 767 767 768 768 768 767 767 766 765 765 764 763
874 872 871 869 868 866 865 863 862 860 859 857 855 854 852 850 849 847 845 843 841 839 837 835 834 832 831 829 827 825 823 821 820 818 815 814 811 809 806 804 800 797 794 790 786 783 778 773 770 769 770 770 770 769 769 768 768 768 768 768 768 768 768 767 767 766 766 765 764
874 872 871 869 868 866 865 863 862 860 859 857 855 854 852 850 849 847 845 843 841 839 837 836 834 833 831 829 827 825 823 821 819 818 815 814 811 809 806 804 801 797 794 790 787 784 779 773 770 770 770 770 770 770 769 769 768 768 769 769 769 769 769 768 768 767 767 766 765
874 872 871 869 868 866 865 863 862 860 859 857 855 854 852 850 849 847 845 843 841 839 838 836 834 833 831 829 827 825 823 821 819 817 815 814 812 809 807 804 801 798 794 791 789 785 780 775 772 771 771 771 771 770 770 770 769 769 770 770 770 770 770 770 769 768 768 767 766
874 872 871 869 868 866 865 863 862 860 859 857 855 854 852 850 849 847 845 843 841 839 837 836 834 832 830 828 826 825 823 821 819 818 816 814 812 810 807 805 801 798 795 792 790 786 782 777 775 773 772 772 772 771 770 770 770 770 770 770 771 771 770 770 770 770 769 768 767
874 872 871 869 868 866 865 863 862 860 859 857 855 854 852 850 848 846 845 843 841 840 838 836 834 832 830 828 826 825 823 821 820 818 816 814 812 810 808 805 802 799 796 793 791 788 783 779 777 775 774 774 773 772 771 771 770 770 770 771 771 771 771 771 771 770 770 770 769
874 872 871 870 868 866 865 863 862 860 859 857 855 854 852 850 848 846 844 843 841 840 838 836 835 833 831 829 827 825 823 821 820 818 816 814 812 810 808 806 803 800 797 794 792 789 785 781 779 777 776 775 775 774 773 772 772 772 772 772 772 772 772 772 771 771 771 771 770
874 872 871 869 868 866 865 864 862 860 859 857 855 853 852 850 848 846 845 843 841 840 838 836 834 832 831 829 827 825 824 822 820 818 816 814 812 810 809 806 804 801 798 795 792 790 787 784 782 780 778 776 776 775 775 775 774 774 774 774 774 774 773 773 772 772 772 772 771
874 873 871 870 868 866 865 864 862 860 859 857 855 853 851 850 848 846 845 843 841 839 837 835 834 832 830 829 827 825 824 822 820 818 816 815 813 811 809 807 805 802 799 796 794 791 789 786 785 783 780 779 778 777 777 777 776 776 776 776 776 775 775 774 773 773 773 773 772
875 873 871 870 868 867 865 864 862 860 859 857 855 853 851 850 848 846 845 843 841 839 837 835 834 832 831 829 827 825 824 822 820 819 817 815 814 812 810 808 806 803 801 798 795 793 791 789 787 786 784 782 780 780 779 779 779 779 778 778 778 778 777 776 775 774 774 774 774
875 873 872 870 868 867 865 864 862 860 859 857 855 853 852 850 848 846 845 843 841 839 837 835 834 832 831 830 828 826 824 823 821 819 817 816 814 813 811 810 807 805 802 800 798 795 793 791 790 788 787 786 784 783 782 782 782 781 781 780 780 780 779 778 777 776 776 776 775
875 873 872 870 869 867 865 864 862 860 859 857 855 853 852 850 848 847 845 843 841 839 837 835 834 832 831 830 828 826 825 823 821 820 818 816 815 814 812 811 808 806 804 801 800 798 795 793 791 790 789 789 787 786 785 785 784 784 783 782 782 781 781 780 779 779 778 778 777
875 874 872 870 869 867 865 864 862 860 859 857 855 854 852 850 849 847 845 843 841 839 837 835 834 832 830 829 828 826 825 823 822 820 819 817 816 815 813 812 810 807 805 803 801 799 797 794 793 792 791 790 790 789 788 787 786 785 785 784 784 783 783 782 782 781 780 780 779
875 874 872 870 869 867 865 864 862 860 859 857 856 854 852 851 849 847 845 843 841 839 837 835 834 832 830 829 827 826 825 823 822 821 820 818 817 815 814 813 811 809 806 805 803 801 798 796 795 794 793 792 792 791 790 789 788 787 787 786 786 785 785 784 783 783 782 781 780
Wind_Speed
21 21 21 20 20 20 20 20 20 20 20 21 22 22 22 21 21 21 21 22 22 23 24 24 25 25 27 28 28 28 28 29 29 29 29 28 28 28 28 28 27 27 27 28 28 27 26 26 26 25 24 23 23 23 23 23 24 25 25 24 24 23 23 24 25 25 26 26 26
21 21 21 20 20 21 21 21 20 21 21 22 22 22 21 21 21 21 22 22 23 24 25 25 25 26 27 28 28 28 29 29 30 29 29 28 27 27 27 27 27 27 28 28 27 26 26 26 26 25 24 23 23 23 24 24 24 24 24 24 23 23 24 24 25 25 26 25 25
21 21 21 21 21 22 21 21 21 22 23 22 22 21 21 21 21 21 22 23 24 25 25 25 26 27 27 28 28 28 29 29 29 29 28 28 27 27 27 27 28 28 28 27 27 26 26 26 26 25 23 23 23 24 25 25 25 24 24 24 24 24 24 24 25 25 25 24 23
21 21 22 22 22 22 22 21 22 23 23 22 22 21 21 21 21 22 23 24 25 25 25 26 26 26 26 27 28 29 29 29 29 28 28 27 27 27 27 27 28 28 28 27 27 27 27 27 26 24 23 23 24 24 24 24 24 24 25 25 25 25 25 25 26 25 23 22 23
21 21 21 22 22 22 22 22 23 23 23 22 22 21 21 21 22 23 24 24 25 25 26 26 26 26 26 27 29 29 29 29 28 27 27 27 27 27 27 27 28 28 28 27 27 27 26 26 25 24 23 23 23 23 24 24 25 25 26 26 26 25 25 25 25 24 22 22 23
22 22 22 22 22 22 22 22 23 23 23 22 22 22 22 22 23 24 24 25 25 26 26 26 25 25 27 28 29 29 29 28 28 27 27 28 27 27 27 28 28 27 27 27 27 27 27 26 25 24 23 23 23 23 23 24 25 26 26 27 26 26 26 25 25 23 22 23 24
22 22 22 22 22 22 23 23 23 24 23 22 22 23 23 24 24 25 26 25 25 25 25 25 25 26 28 29 29 29 29 28 28 28 28 27 27 27 27 28 28 27 27 27 27 27 26 26 25 24 24 23 23 23 24 25 26 27 27 27 26 26 26 25 24 23 22 24 26
21 22 22 22 22 23 23 24 24 24 23 22 22 23 24 25 25 26 26 26 25 25 25 25 26 27 28 29 29 29 28 28 28 28 28 27 28 28 28 28 28 27 27 27 27 27 27 26 25 24 23 24 23 24 25 27 28 28 28 28 27 27 26 26 24 23 24 25 26
22 22 22 22 23 23 23 24 24 24 23 23 23 24 24 24 25 25 26 25 25 25 25 26 27 28 28 28 28 28 28 28 28 28 28 28 28 28 28 28 28 28 28 27 27 28 27 26 24 24 24 24 25 26 28 29 29 28 28 27 27 28 28 27 26 24 24 25 25
22 23 23 23 23 23 24 24 24 23 23 23 23 24 24 24 25 25 25 25 25 26 26 26 27 28 28 28 28 28 28 28 28 29 29 28 28 28 28 28 28 28 28 28 28 28 28 26 25 25 26 27 27 28 29 29 28 28 28 28 28 28 29 28 26 24 24 24 25
22 23 23 23 24 24 24 24 24 23 22 22 23 24 24 25 25 25 25 25 26 26 27 27 27 28 28 27 28 28 28 28 28 29 29 29 28 28 28 28 28 28 29 29 29 28 27 26 27 28 29 29 29 29 29 28 28 28 28 29 29 30 29 28 25 23 23 24 24
22 23 23 23 24 24 24 24 24 23 22 23 23 24 24 25 25 25 26 26 26 26 27 27 27 27 27 27 27 28 28 29 29 29 29 29 28 28 28 28 29 29 30 30 29 28 28 28 29 30 31 31 30 29 29 29 29 29 30 30 31 30 29 26 24 23 23 24 24
22 23 23 24 24 24 24 24 23 22 22 23 23 24 25 25 25 25 25 26 26 27 27 27 26 26 27 27 28 28 29 29 29 29 29 28 28 28 28 29 30 31 31 30 30 29 29 29 30 31 31 32 31 31 30 30 29 29 30 31 31 30 28 25 23 22 23 24 24
23 23 23 24 24 24 24 23 23 22 22 23 24 25 25 25 25 25 25 26 27 27 27 27 27 26 27 28 28 29 29 29 29 29 29 28 28 28 29 30 31 32 32 31 31 31 31 31 31 31 31 31 32 32 32 31 30 30 30 31 31 30 28 24 22 22 22 23 23
23 23 24 24 24 24 23 23 23 23 23 24 25 25 26 25 25 25 25 26 27 27 27 27 27 28 28 28 28 29 29 29 29 29 29 29 29 29 30 31 32 32 33 33 33 33 32 32 32 31 31 31 32 32 32 31 31 31 31 31 31 30 26 22 21 21 22 22 23
24 24 24 24 24 23 23 23 23 23 24 25 26 26 26 26 26 26 26 27 27 27 27 28 28 28 29 28 28 29 29 29 29 29 29 29 30 31 32 32 33 33 34 34 34 34 34 33 33 32 32 32 32 31 31 31 32 32 32 31 30 27 23 19 19 20 21 21 22
24 24 24 24 24 24 24 24 24 24 25 26 27 27 27 26 26 27 27 27 28 28 28 29 29 29 29 29 29 29 29 29 29 29 29 30 31 32 32 33 33 34 35 35 35 36 35 35 35 34 33 33 32 31 31 31 33 33 31 29 25 21 18 18 19 20 20 20 21
24 25 25 24 24 25 25 25 25 25 26 27 27 27 27 27 27 28 28 28 28 28 29 30 30 29 29 30 30 29 29 29 29 29 30 30 31 32 32 33 33 34 35 36 36 36 36 36 36 36 36 35 33 32 31 31 33 32 28 23 19 16 16 17 18 19 19 19 20
25 25 25 25 25 26 26 26 26 26 27 27 27 28 28 28 28 28 29 29 29 29 30 30 30 30 30 30 30 30 29 29 29 30 30 30 31 32 32 33 34 35 36 36 36 36 36 37 37 38 38 38 36 34 32 32 31 28 22 15 13 13 15 17 18 18 18 18 19
25 25 25 25 26 26 27 27 27 27 27 28 28 28 29 29 28 29 29 30 30 30 30 30 30 30 30 30 31 30 30 30 29 30 30 31 31 32 32 33 34 35 36 36 36 36 37 37 38 39 41 41 40 36 33 30 26 20 13 10 11 13 15 16 16 16 16 17 18
25 25 25 26 26 27 27 27 27 27 28 28 28 28 28 28 29 29 30 30 31 31 31 31 30 30 30 31 31 31 30 30 30 30 31 31 32 32 32 33 34 35 35 35 36 37 38 38 38 40 42 42 39 33 26 21 15 10 8 8 11 13 14 15 15 15 15 16 18
25 25 26 26 27 27 27 27 27 28 28 28 28 28 28 28 29 30 30 31 31 31 31 30 30 30 30 31 31 30 30 30 30 31 31 32 32 32 33 33 34 35 35 35 36 38 38 38 39 40 40 35 27 17 9 5 3 4 6 9 11 13 14 14 15 14 14 16 19
26 26 27 27 27 27 27 28 28 28 28 28 28 28 28 29 30 30 30 31 31 31 31 31 30 31 31 30 30 30 30 31 32 32 32 32 32 33 33 34 34 34 34 35 36 37 38 39 40 38 30 20 13 10 7 5 2 3 7 9 11 13 14 15 15 15 15 16 19
26 27 27 26 27 27 28 28 28 28 28 28 28 28 29 29 30 30 30 31 31 31 31 31 31 31 31 30 29 29 30 31 32 32 33 33 33 33 34 34 34 33 33 34 35 36 38 40 40 30 17 13 13 11 8 6 5 5 7 9 11 13 15 16 16 16 17 18 20
27 27 27 27 27 28 28 28 28 28 28 28 28 29 29 29 30 30 30 30 31 31 31 31 31 31 30 29 28 29 30 31 32 32 32 33 33 34 34 34 34 33 33 33 35 38 41 43 37 21 10 11 10 9 8 7 6 6 7 9 11 14 15 16 17 18 19 20 21
27 27 27 27 27 28 28 28 28 28 27 27 28 29 29 30 30 30 30 30 30 31 31 30 30 29 28 27 28 30 31 31 31 31 32 32 34 34 34 34 33 33 34 35 37 40 44 46 32 14 8 9 9 9 9 8 8 8 8 10 12 14 16 17 18 19 19 20 22
27 27 26 27 27 27 27 27 27 27 28 28 29 29 29 30 30 29 29 30 30 30 30 29 28 27 26 27 28 30 31 31 31 31 31 32 33 33 34 33 34 34 35 37 39 42 46 46 24 10 10 10 10 11 10 10 10 10 10 12 13 15 16 17 18 19 19 20 22
26 26 27 27 27 27 27 27 27 27 28 28 29 29 29 29 29 29 29 29 29 29 28 27 26 26 26 26 28 29 30 31 31 31 31 31 32 33 33 33 34 35 36 37 39 43 46 42 18 11 12 12 11 12 12 12 12 13 13 14 14 15 16 17 18 19 19 20 21
26 27 27 27 27 26 27 27 27 27 28 28 28 29 29 29 29 29 29 29 29 28 27 26 25 25 26 27 28 29 29 30 30 30 31 31 32 32 32 33 34 35 35 37 38 44 46 37 16 13 13 13 12 12 14 15 15 15 15 15 15 15 17 18 18 19 19 19 20
26 27 26 26 26 26 26 26 27 27 28 28 28 28 28 28 29 29 29 29 28 27 26 26 25 25 26 27 27 28 29 29 30 30 30 31 31 32 32 33 34 34 35 36 38 44 46 33 16 13 14 13 13 14 15 17 16 15 15 15 15 16 18 19 19 20 20 20 20
27 26 26 26 26 26 26 26 27 27 27 27 27 28 28 28 28 29 29 28 28 27 27 26 26 26 27 27 27 28 29 29 29 29 30 30 31 31 32 32 33 33 34 35 38 44 44 33 20 15 15 15 15 16 17 18 16 14 14 14 15 17 19 20 21 22 22 22 22
27 26 26 25 25 26 26 26 26 27 27 27 27 27 27 28 28 29 28 28 27 27 27 27 27 26 27 27 27 28 28 29 29 29 30 30 31 31 31 31 31 32 32 34 38 43 44 37 26 19 17 17 18 18 19 19 18 15 13 15 16 18 19 21 22 24 24 24 24
26 26 25 25 25 26 26 26 27 27 27 27 27 27 27 28 28 29 28 27 27 27 27 27 26 26 26 26 27 28 28 28 29 29 29 30 30 30 30 29 30 31 32 34 37 42 43 39 33 26 20 18 19 20 21 21 20 18 17 18 19 20 21 22 24 25 26 26 26
26 25 25 25 25 26 26 26 27 27 27 27 27 27 28 28 28 28 28 27 26 26 27 26 26 26 25 25 26 26 27 27 28 29 29 29 29 29 28 28 28 30 32 34 38 41 43 39 35 32 27 22 20 20 21 21 21 21 22 24 25 24 23 24 25 26 27 28 27
26 25 25 25 26 26 26 27 27 27 27 27 28 28 28 28 28 28 27 26 26 26 27 27 26 26 26 26 26 26 26 27 28 28 28 28 28 28 27 27 28 30 32 34 38 41 42 38 36 35 32 28 24 21 20 21 22 24 26 28 28 27 27 28 28 28 28 28 28
26 25 25 26 26 26 26 27 27 27 28 28 28 29 29 28 28 27 26 26 26 26 27 27 27 26 26 26 26 25 26 27 27 28 28 28 27 27 26 27 29 30 32 33 36 40 42 39 36 35 35 32 28 24 22 22 24 26 27 27 26 27 28 29 31 31 30 29 28
25 25 25 26 26 26 27 27 27 27 28 28 28 28 28 28 27 26 26 25 26 27 27 27 27 26 26 26 25 25 26 26 27 27 27 27 26 25 25 26 28 30 31 32 34 38 40 39 35 34 34 34 31 27 24 24 24 25 25 25 25 26 26 27 29 31 31 30 29
25 25 25 26 26 26 27 27 27 27 27 27 28 28 27 27 26 26 26 25 26 27 27 27 26 26 26 25 24 24 25 26 26 26 27 26 26 24 24 25 28 30 30 31 33 35 37 38 34 32 32 33 31 28 25 23 23 23 23 23 24 25 25 26 26 28 28 29 28
25 25 25 25 26 26 27 27 27 27 27 27 27 27 27 26 26 26 26 26 26 27 27 27 27 26 26 24 23 23 24 25 26 26 26 25 25 24 24 25 28 29 30 30 32 34 35 36 34 31 29 29 29 27 24 22 21 21 22 22 22 23 24 24 24 24 25 26 26
25 25 25 25 25 26 26 26 26 26 26 26 26 27 26 26 26 26 26 26 27 27 27 27 27 28 27 24 22 22 23 24 25 25 25 24 24 23 24 25 27 29 30 30 31 33 34 34 34 31 28 27 26 25 23 22 21 21 21 21 21 21 21 22 22 22 23 24 25
25 25 25 25 25 25 26 26 25 25 25 25 26 26 26 26 26 26 27 27 27 28 27 27 28 29 28 25 21 20 21 22 23 24 24 23 23 23 24 26 27 28 30 30 31 32 33 33 33 31 29 26 25 24 23 22 21 21 20 20 20 19 19 20 21 22 22 23 24
Wind_Direction
341 341 341 339 338 337 335 333 333 332 332 331 329 328 326 325 324 323 323 324 324 324 323 323 323 323 324 325 326 327 328 328 328 327 327 327 327 327 326 325 325 324 323 322 322 322 321 321 320 319 316 314 313 312 312 310 308 307 307 308 309 311 312 312 311 309 308 307 305
340 340 340 339 337 336 335 333 332 332 331 330 328 327 325 324 323 323 323 323 323 323 322 322 322 322 323 324 326 327 327 327 327 327 327 327 327 327 326 325 324 323 322 322 322 322 321 321 320 318 316 314 313 312 312 311 310 309 311 314 316 316 315 313 310 308 308 307 306
339 339 339 338 338 337 335 333 332 331 330 329 327 326 325 324 324 323 323 322 322 323 322 322 322 323 323 325 326 326 326 326 326 326 327 327 327 327 326 324 323 323 322 322 322 321 320 320 319 317 315 313 312 310 310 310 311 313 317 319 319 317 314 311 309 307 306 306 307
338 338 338 337 337 336 335 333 331 330 330 328 327 326 326 325 324 323 323 323 323 323 323 323 323 323 324 324 325 325 325 325 326 327 327 327 327 326 326 325 324 323 322 322 322 321 320 320 319 317 314 311 310 309 309 310 313 316 319 319 317 315 312 309 307 306 305 305 309
337 337 337 336 335 335 334 332 331 330 329 328 326 326 326 325 325 325 325 325 324 323 323 323 323 323 324 324 325 325 325 325 326 327 327 326 326 326 326 325 324 323 322 321 321 320 320 320 319 316 313 310 309 308 308 310 314 316 317 316 315 313 311 308 306 305 305 308 311
336 335 335 335 334 333 333 332 331 330 328 327 326 325 325 325 326 326 326 325 324 323 324 324 324 324 324 324 325 325 325 326 327 327 327 326 326 326 326 325 324 323 322 322 321 321 321 321 319 317 314 311 309 308 309 312 314 316 316 315 314 312 310 308 306 305 307 310 312
334 334 334 334 333 333 332 332 331 330 328 327 326 325 325 325 325 326 326 325 325 325 325 326 325 325 325 325 325 325 326 326 327 327 327 326 326 325 325 324 324 323 322 322 321 321 321 320 319 316 315 313 311 310 311 313 314 315 315 314 314 313 311 309 307 308 310 312 312
333 333 333 333 333 332 332 331 330 330 329 327 326 325 325 325 325 326 326 326 326 326 326 325 325 325 324 324 325 325 326 326 327 327 327 326 326 326 325 325 324 323 322 322 321 321 321 319 318 315 313 312 312 311 312 313 313 314 314 314 314 314 313 310 308 309 312 313 312
333 333 333 333 333 332 332 331 330 330 328 327 326 326 326 326 326 326 327 326 326 326 325 325 324 324 324 324 324 325 326 327 327 327 327 326 325 325 325 325 325 324 323 322 322 321 321 318 316 313 312 312 311 311 311 312 312 313 313 313 314 314 313 311 309 310 313 314 313
332 333 333 333 333 332 332 331 331 330 329 327 327 327 327 327 326 326 326 325 325 325 325 325 324 325 325 325 325 326 327 326 326 326 326 325 326 325 324 324 324 323 323 322 322 321 320 317 314 313 312 311 310 310 310 311 311 312 312 313 313 313 312 310 309 312 315 316 315
332 332 333 333 332 332 332 332 331 330 329 328 328 328 328 327 327 326 326 325 325 325 325 325 325 325 325 325 326 326 326 326 326 325 325 325 325 325 324 323 323 322 322 322 321 321 319 316 315 313 312 311 310 310 310 310 310 310 310 311 312 312 311 310 311 314 318 318 318
331 331 332 332 332 332 332 332 331 330 329 329 328 328 328 327 327 327 326 326 326 325 325 325 325 325 325 326 325 326 326 325 325 325 324 324 324 323 323 323 323 322 322 321 321 319 317 315 313 312 312 312 311 310 309 309 309 309 309 311 312 311 309 309 312 317 321 322 321
330 331 331 332 332 333 333 333 332 330 329 328 328 327 327 327 327 327 326 326 326 326 325 325 325 325 325 325 325 325 325 325 325 325 325 324 324 323 323 323 323 322 321 321 320 318 315 313 311 311 310 310 310 309 308 308 307 307 308 310 311 310 308 308 313 320 323 324 323
330 331 331 332 332 333 333 332 331 329 327 327 327 326 326 326 326 327 327 326 326 325 325 325 325 325 325 325 324 324 324 325 325 325 325 324 324 324 323 323 322 321 321 320 318 317 314 312 311 310 309 308 308 307 308 307 307 307 307 308 308 307 306 308 315 322 325 325 326
329 330 331 331 332 332 332 331 330 328 326 326 325 325 325 325 325 326 326 326 326 325 325 325 325 325 325 325 324 324 324 324 324 324 324 324 324 325 324 323 322 321 320 319 317 316 314 312 311 310 308 307 306 306 307 308 308 308 308 308 307 305 304 309 318 323 325 327 329
329 330 330 331 331 331 330 330 328 327 325 325 325 324 324 324 324 325 326 326 326 325 325 325 324 324 325 325 325 325 324 324 324 324 324 324 324 325 324 324 323 321 320 319 317 316 314 312 310 308 306 305 304 304 305 307 309 309 310 309 307 304 305 313 321 325 327 330 333
329 329 330 330 330 329 328 328 326 325 325 324 324 324 323 323 324 325 326 326 326 325 324 324 324 324 324 325 325 325 325 324 323 323 323 323 323 323 323 323 322 321 320 319 317 316 315 313 311 309 306 303 301 300 302 305 307 309 310 310 308 308 311 319 324 327 331 336 339
329 329 329 329 328 328 327 326 325 325 324 324 324 324 323 323 324 324 325 326 325 325 324 324 324 324 324 324 325 325 324 323 322 322 322 322 322 323 322 322 322 321 320 319 318 316 314 313 312 309 306 303 299 297 298 301 303 306 308 310 311 314 319 325 329 333 338 343 346
328 328 328 328 327 327 326 325 325 324 324 324 324 324 324 323 324 324 325 326 326 325 324 323 323 323 324 324 324 325 324 323 322 322 322 323 323 323 323 322 321 321 320 319 318 316 315 313 312 309 306 302 298 295 294 296 299 303 307 312 317 321 326 331 337 344 350 353 352
328 327 327 327 326 326 325 325 325 324 324 324 323 323 323 324 325 325 326 326 326 325 324 323 323 323 323 324 324 324 324 324 323 323 323 324 324 324 323 322 321 320 320 319 318 316 314 312 311 309 306 303 299 296 293 293 296 301 309 317 324 329 335 342 349 355 359 359 357
327 327 326 326 326 325 325 325 325 325 325 324 324 323 324 325 326 327 327 327 326 325 324 323 323 323 323 324 324 325 325 324 324 323 324 324 325 324 324 323 322 321 320 319 317 316 314 312 310 309 308 307 305 301 296 293 294 300 314 325 333 342 350 355 359 2 3 3 2
327 326 326 325 326 326 326 326 326 326 326 325 325 325 326 327 328 328 328 327 327 326 325 324 324 324 324 324 325 325 325 325 325 325 325 325 325 325 325 324 323 322 320 319 317 316 314 312 312 312 313 316 320 323 319 306 300 314 329 338 348 358 4 6 4 3 3 5 6
327 326 326 326 326 327 327 327 327 327 327 327 327 328 328 329 329 329 329 329 328 328 327 326 325 325 324 325 326 326 327 327 327 327 327 327 327 327 326 325 324 323 321 320 317 315 313 313 313 316 324 343 14 46 71 82 60 358 349 354 3 10 12 11 6 4 5 9 12
327 327 326 327 328 328 328 328 328 328 328 328 329 330 330 330 330 330 330 331 330 330 329 328 327 326 326 327 327 328 328 328 328 329 329 329 329 328 328 327 326 324 321 319 317 315 314 314 317 324 347 35 57 66 69 64 39 12 4 9 15 17 15 12 8 8 11 16 18
327 327 328 329 329 329 329 329 329 328 328 329 330 331 331 331 331 331 332 332 332 331 331 329 329 328 328 328 329 329 329 329 330 330 330 330 330 330 329 328 327 325 322 319 317 316 317 320 325 338 25 54 53 49 47 42 27 15 15 24 25 22 18 15 13 15 19 22 22
328 328 328 330 330 329 329 330 330 330 330 330 331 332 332 332 333 333 333 333 333 333 332 331 330 329 329 328 329 329 330 330 331 332 332 331 331 331 330 329 328 326 324 322 320 320 322 328 337 1 61 49 41 39 39 34 23 19 26 36 34 28 23 20 20 22 25 26 25
328 329 329 330 330 330 330 330 331 332 332 333 333 333 333 333 333 334 334 334 334 333 332 332 331 330 329 329 329 329 330 331 332 333 333 332 331 331 330 330 329 327 325 324 323 324 328 338 351 39 74 49 43 40 37 30 24 26 36 44 41 35 30 28 27 28 28 28 27
329 330 330 331 331 331 331 332 334 334 335 335 335 335 335 335 334 334 334 335 334 333 332 331 331 331 330 329 329 329 330 332 333 333 333 333 332 332 331 330 329 328 326 326 326 328 335 347 11 66 70 54 47 40 34 29 27 34 44 51 48 42 38 36 35 33 31 30 29
331 331 331 332 332 333 334 336 336 337 337 337 337 337 337 337 337 336 336 335 334 333 331 330 330 331 330 330 329 330 331 332 333 333 333 334 334 333 333 331 330 329 328 328 328 333 341 355 29 72 65 55 47 37 30 27 31 41 52 58 54 49 45 43 40 38 36 34 32
334 334 333 333 334 335 337 338 338 339 339 339 339 339 339 339 339 338 337 335 334 332 331 331 331 331 330 330 330 331 332 332 333 334 335 335 334 334 334 332 332 330 329 330 332 339 349 2 34 67 63 54 43 34 28 27 33 46 60 65 61 55 51 49 46 43 40 37 35
337 336 336 336 337 338 339 339 340 340 340 340 340 341 341 340 339 338 337 335 334 333 333 333 333 332 332 331 331 332 333 333 334 335 335 335 335 335 335 335 333 331 330 332 336 346 356 8 31 56 59 51 41 34 29 28 32 46 65 74 69 62 57 55 51 47 43 40 36
340 339 339 339 340 340 340 341 341 341 341 341 341 341 340 340 339 338 338 336 336 336 337 336 336 334 333 332 333 333 334 335 335 336 336 336 335 335 336 336 334 333 333 335 341 351 1 12 26 42 49 47 40 34 29 26 26 37 59 76 77 72 66 62 57 52 47 42 38
342 341 341 341 341 341 341 342 341 341 341 341 340 340 339 339 338 338 338 337 338 338 339 338 337 335 334 333 333 334 335 336 336 336 336 336 336 337 337 337 336 335 336 338 345 356 6 14 21 27 34 38 35 30 26 23 22 30 46 61 67 69 68 65 61 56 50 45 41
343 342 342 342 342 342 342 342 342 341 341 340 340 339 339 338 337 337 337 338 338 339 339 339 337 336 334 334 333 334 335 336 336 336 337 338 338 339 339 339 338 338 339 341 349 0 10 17 18 19 21 27 27 24 21 20 22 31 43 49 50 50 51 53 55 55 52 48 43
344 343 343 342 342 342 342 342 342 341 340 340 339 339 338 337 336 337 337 338 338 339 339 339 338 337 336 336 335 336 337 338 337 337 338 339 340 340 341 342 342 341 341 342 351 3 14 20 22 20 20 21 21 21 20 21 27 36 44 46 42 39 38 39 43 45 47 46 44
344 343 343 342 342 342 342 342 341 341 340 339 339 338 337 337 337 338 339 339 339 339 339 339 339 339 338 338 337 338 339 340 339 339 340 341 342 342 344 345 345 344 343 344 353 4 14 23 25 24 21 21 21 22 25 31 36 41 45 44 41 38 36 36 37 38 39 40 40
344 343 343 342 342 342 341 341 340 340 339 338 338 337 337 337 338 339 340 340 339 339 338 338 339 339 339 339 338 338 340 341 341 341 342 343 344 345 347 348 347 346 346 348 354 3 13 23 28 28 25 23 22 24 30 38 41 43 43 42 40 38 36 36 36 36 35 33 33
344 343 342 341 341 341 340 340 340 339 338 338 337 337 337 338 339 340 340 340 338 337 336 337 337 338 339 339 338 338 340 342 343 344 344 345 346 349 351 351 350 349 349 352 357 3 12 22 29 32 29 26 24 26 31 37 41 41 40 39 37 35 34 34 34 33 32 29 27
343 342 341 341 340 340 339 339 338 338 338 337 338 338 339 340 340 340 339 339 337 336 335 335 336 336 337 338 337 337 338 341 343 345 346 347 349 352 355 355 353 351 351 354 359 4 10 19 27 32 33 30 28 27 29 33 36 37 37 36 34 33 32 31 31 29 27 26 24
342 341 341 340 340 339 338 337 337 337 337 338 339 339 340 340 339 339 338 338 337 336 335 335 335 335 336 336 336 335 337 340 344 347 349 349 351 356 359 359 356 354 353 356 0 5 11 18 24 29 33 33 31 29 29 29 31 33 34 34 32 31 29 29 28 26 24 23 21
342 341 341 340 338 337 336 335 335 336 337 338 340 340 340 339 338 337 337 336 336 335 335 335 336 337 337 336 337 337 338 341 346 349 352 354 356 359 2 1 359 357 357 359 2 7 12 17 22 26 30 32 31 30 30 29 28 28 29 31 30 29 27 26 25 24 22 20 19